GSAT-11

Last updated on July 16, 2019, 4:08 a.m. UTC

1 43824U 18100B   19196.82132719 -.00000088  00000-0  00000-0 0  9997
2 43824   0.0552 273.2759 0007651 186.5357 203.1814  1.00272398  2197
UTC
Height (km)
Latitude
Longitude
Inclination
Orbital Period
UTC large
Height (km)
Speed (km/s)
/
Latitude / Longitude
Inclination (degrees)
Orbital Period (minutes)
Azimuth
Elevation
Range (km)
Doppler Factor
iOS Compass Heading
iOS Angle

Next 30 passes for location: Hong Kong

Rise time Rise Azimuth (degrees) Set time Set Azimuth (degrees) Duration Max altitude (degrees)

No matching passes for this satellites